Content
SEND FEEDBACK

Daily
Averages
Monthly
Summary
United States of America

WOODWORTH, LOUISIANA


Home > North America > United States > Louisiana
Elevation: 9 feet     Latitude: 31 07N     Longitude: 092 28W

WEATHER
 
SELECT A DAY
Number of Records: 198,820;   Date Range: 3/15/95 - 9/29/14
 
SHARE

PRINT THIS DATA

[ ← Previous Day ]
WEATHER ALMANAC - JANUARY 31, 2013
[ Next Day → ]
[ °C ]   °F
Weather ElementAverageHighLow
Temperature47.7 °F62.1 °F (2:53 pm)30.9 °F (6:53 am)
Dewpoint31.5 °F36 °F (8:53 am)25 °F (1:53 pm)
Humidity59.5 %96 % (4:53 am)26 % (1:53 pm)
Barometer30.25 in30.32 in (9:53 pm)30.21 in (2:53 am)
Wind Speed4.8 mph9.2 mph (10:53 am)
Weather ElementAverage
Visibility10 mi
Wind DirectionSSE (143.2 °)

Weather ElementTotal
Precipitation---
Heating Degree Days18.5 (Base 65)
Averaged from 22 records on January 31, 2013
WEATHER CONDITIONS BREAKOUT
WIND DIRECTION BREAKOUT
WEATHER BY HOUR - JANUARY 31, 2013
[ °C ]   °F
Local TimeTemperatureDewpointHumidityBarometerVisibilityWind DirectionWind SpeedGust SpeedPrecipitationEventsConditions
1:53 AM36.0 °F33.1 °F89 %30.22 in10.0 miCalmClear
2:53 AM35.1 °F30.9 °F85 %30.21 in10.0 miCalmClear
3:53 AM34.0 °F30.9 °F89 %30.21 in10.0 miCalmClear
4:53 AM32.0 °F30.9 °F96 %30.21 in10.0 miSSE (150°)4.6 mphClear
5:53 AM33.1 °F30.9 °F92 %30.22 in10.0 miCalmClear
6:53 AM30.9 °F30.0 °F96 %30.24 in10.0 miCalmClear
7:53 AM34.0 °F32.0 °F92 %30.26 in10.0 miCalmClear
8:53 AM43.0 °F36.0 °F76 %30.30 in10.0 miCalmClear
9:53 AM50.0 °F35.1 °F57 %30.30 in10.0 miSSW (200°)5.8 mphClear
10:53 AM55.0 °F28.9 °F37 %30.30 in10.0 miWSW (250°)9.2 mphClear
11:53 AM57.0 °F28.0 °F33 %30.29 in10.0 miSSW (210°)6.9 mphClear
12:53 PM60.1 °F28.0 °F30 %30.25 in10.0 miWSW (250°)6.9 mphClear
1:53 PM60.1 °F25.0 °F26 %30.24 in10.0 miWSW (240°)8.1 mphClear
2:53 PM62.1 °F27.0 °F26 %30.23 in10.0 miSSW (210°)5.8 mphClear
3:53 PM62.1 °F28.9 °F29 %30.22 in10.0 miSSW (210°)8.1 mphClear
4:53 PM60.1 °F28.9 °F31 %30.22 in10.0 miSW (220°)8.1 mphClear
5:53 PM55.0 °F36.0 °F49 %30.23 in10.0 miSouth (190°)5.8 mphClear
6:53 PM51.1 °F35.1 °F54 %30.23 in10.0 miSouth (190°)6.9 mphClear
7:53 PM51.1 °F34.0 °F52 %30.26 in10.0 miSouth (190°)9.2 mphClear
9:53 PM48.9 °F34.0 °F56 %30.32 in10.0 miSSW (210°)8.1 mphClear
10:53 PM48.9 °F34.0 °F56 %30.32 in10.0 miSSW (210°)5.8 mphClear
11:53 PM48.9 °F35.1 °F59 %30.32 in10.0 miSW (220°)6.9 mphClear
Hourly data recorded from KAEX, located miles away from Woodworth, Louisiana







STORIES FROM OUR PARTNERS